Location: Overspoor
(51.4747°N, 5.6641°E)
Time: 11:45:29
(UTC+02:00)

NANOSAT C BR1 - Pass Details

Date: 09 July 2022
Orbit: 584 x 599 km, 98.0° (Epoch: 13 August)

Event Time Altitude Azimuth Distance (km) Brightness Sun altitude
Rises 04:19:58 0° 11° (N) 2,857 ? -8.5°
Reaches altitude 10° 04:22:10 10° 7° (N) 1,952 ? -8.3°
Maximum altitude 04:26:19 57° 290° (WNW) 710 ? -7.9°
Drops below altitude 10° 04:30:27 10° 211° (SSW) 1,940 ? -7.5°
Enters shadow 04:30:36 - 211° (SSW) 1,999 ? -7.5°
